Location: Bodest
(46.3000°N, 22.5667°E)
Time: 01:27:40
(UTC+00:00)

CZ-4C R/B - Pass Details

Date: 16 October 2021
Orbit: 403 x 482 km, 97.7° (Epoch: 02 December)

Event Time Altitude Azimuth Distance (km) Brightness Sun altitude
Rises 17:13:05 0° 7° (N) 2,519 6.7 -16.6°
Reaches altitude 10° 17:15:12 10° 2° (N) 1,625 5.7 -16.9°
Maximum altitude 17:18:34 47° 288° (WNW) 618 4.0 -17.5°
Drops below altitude 10° 17:21:48 10° 214° (SSW) 1,567 6.0 -18.1°
Sets 17:23:49 0° 208° (SSW) 2,417 6.9 -18.4°
